Regional Weather Roundup
Issued by NWS San Diego, CA

Home | Current Version | Previous Version | Text Only | Print | Product List | Glossary On
Versions: 1 2 3 4 5 6 7 8 9 10 11 12 13 14 15 16 17 18 19 20 21 22 23 24 25 26 27 28 29 30 31 32 33 34 35 36 37 38 39 40 41 42 43 44 45 46 47 48 49 50
000
ASUS46 KSGX 241810
RWRSGX

SAN DIEGO HOURLY WEATHER ROUNDUP
NATIONAL WEATHER SERVICE SAN DIEGO CA
1100 AM PDT THU APR 24 2014

NOTE: "FAIR" INDICATES FEW OR NO CLOUDS BELOW 12,000 FEET WITH NO
SIGNIFICANT WEATHER AND/OR OBSTRUCTIONS TO VISIBILITY.

CAZ042-043-060-061-PZZ750-775-241900-

GREATER SAN DIEGO AREA

CITY           SKY/WX    TMP DP  RH WIND       PRES   REMARKS
LINDBERGH FLD  MOSUNNY   66  52  60 W9        30.01S
NATIONAL CITY    N/A     66  57  71 NW6       30.01R
CHULA VISTA      N/A     67  59  74 W8        29.93S
IMPERIAL BEACH MOSUNNY   66  55  67 W10       30.00S
BROWN FIELD    SUNNY     68  53  58 W7        29.98S
MIRAMAR MCAS   MOSUNNY   69  50  50 VRB5      29.99R
MONTGOMERY FLD SUNNY     69  51  52 W8        29.99S

$$

NORTH SAN DIEGO COUNTY

CITY           SKY/WX    TMP DP  RH WIND       PRES   REMARKS
CAMP PENDLETON MOSUNNY   71  51  49 S9        29.99S
RED BEACH      FAIR      66  53  63 SW8       30.00S
OCEANSIDE AP   SUNNY     70  52  52 W8        29.99R
VISTA            N/A     68  54  60 W1        29.97S
CARLSBAD       SUNNY     67  50  54 W10       29.99R
DEL MAR          N/A     65  58  76 CALM      30.01S
FALLBROOK        N/A     70  52  52 CALM      29.98S
ESCONDIDO        N/A     73  54  52 CALM      29.99F
SAN MARCOS       N/A     70  54  55 NW1       29.97S
POWAY            N/A     73  53  48 W2        30.00S
R. PENASQUITOS   N/A     71  55  56 SW5       30.00S

$$

EAST SAN DIEGO COUNTY

CITY           SKY/WX    TMP DP  RH WIND       PRES   REMARKS
RAMONA         SUNNY     70  49  47 NW9       29.99R
GILLESPIE FLD  FAIR      73  48  40 W5        30.00S
LA MESA          N/A     68  55  64 NW3       29.93S
JAMUL            N/A     70  53  54 NW8       29.97S
DESCANSO N       N/A     70  42  36 W1        29.89S
MT. LAGUNA OBS   N/A     58  25  28 E5        29.67
CAMPO            N/A     72  28  19 W7        29.96F

$$

ORANGE COUNTY AND THE LOS ANGELES BASIN

CITY           SKY/WX    TMP DP  RH WIND       PRES   REMARKS
JOHN WAYNE AP  MOSUNNY   71  51  49 SW6       29.99S
LAGUNA BEACH     N/A     66  58  74 S3        29.98S
LAKE FOREST FR   N/A     71  47  42 NW1       29.90S
SANTA ANA        N/A     72  54  52 SW2       29.95S
LOS ALAMITOS   MOSUNNY   71  54  54 S7        30.00S
FULLERTON      SUNNY     72  48  42 VRB3      29.98F
LONG BEACH     SUNNY     70  51  51 VRB6      29.99F
L.A. AP        MOSUNNY   71  45  39 VRB3      29.99F
L.A. DOWNTOWN  SUNNY     74  46  36 CALM      29.98S

$$

THE INLAND EMPIRE

CITY           SKY/WX    TMP DP  RH WIND       PRES   REMARKS
CORONA         SUNNY     71  47  42 W8          N/A
CHINO          MOSUNNY   72  47  40 CALM      30.00S
ONTARIO        MOSUNNY   71  40  32 VRB6      29.99S
SAN BERNARDINO MOSUNNY   72  36  26 W7        29.99S
RIVERSIDE AP   SUNNY     71  41  33 VRB5      29.99S
RIV CYN CREST    N/A     68  50  51 NW6       29.96S
MORENO VALLEY    N/A     73  47  38 NW5       28.12S
MARCH ARB      SUNNY     71  41  33 NW10      30.00R
HORSETHIEF CYN   N/A     69  37  30 W3        29.99S
PERRIS           N/A     69  41  36 NW5         N/A
MENIFEE          N/A     73  50  44 S3        30.04S
HEMET EAST       N/A     70  37  29 CALM      29.97S
FRENCH VALLEY  NOT AVBL
TEMECULA         N/A     70  52  51 SW6       29.95F

$$

SAN BERNARDINO AND RIVERSIDE COUNTY MOUNTAINS

CITY           SKY/WX    TMP DP  RH WIND       PRES   REMARKS
BIG BEAR AP    SUNNY     55  19  24 W6        30.14S
BIG BEAR SHEA    N/A     57  11  16 E6        30.09R
ANGELUS OAKS     N/A     58  29  33 CALM      29.94R
PINE COVE        N/A     62  27  26 SE1       29.99S

$$

SOUTHERN DESERT INCLUDING THE COACHELLA VALLEY

CITY           SKY/WX    TMP DP  RH WIND       PRES   REMARKS
PALM SPRINGS   MOSUNNY   83  18   9 CALM      29.93S
THOUSAND PALMS   N/A     83  25  12 CALM      29.89F
PALM DESERT      N/A     85  33  15 CALM        N/A
THERMAL        SUNNY     86  22   9 CALM      29.88F
BLYTHE         SUNNY     82  16   8 NE5       29.93F
IMPERIAL AP    SUNNY     82  45  27 VRB3      29.90F
EL CENTRO NAS  MOSUNNY   84  37  18 N6        29.90F
YUMA AZ        PTSUNNY   85  19   9 N3        29.92F
MEXICALI       SUNNY     82  37  20 CALM      29.92

$$

UPPER DESERT

CITY           SKY/WX    TMP DP  RH WIND       PRES   REMARKS
VICTORVILLE AP MOSUNNY   66  27  22 N5        30.04F
HESPERIA         N/A     65  31  28 CALM      30.13F
APPLE VALLEY     N/A     66  28  23 CALM      30.07F
GRAY BUTTE AP  NOT AVBL
PALMDALE       SUNNY     66  27  23 NW3       30.04S
LANCASTER      SUNNY     69  27  20 CALM      30.03S
EDWARDS AFB    MOSUNNY   66  28  23 E3        30.02S
DAGGETT        SUNNY     70  25  18 W12       30.01S
29 PALMS N     MOSUNNY   73  19  13 VRB6      30.05F
NEEDLES        SUNNY     81  11   7 E5        29.94F

$$

REGIONAL REPORTS

CITY           SKY/WX    TMP DP  RH WIND       PRES   REMARKS
SANTA BARBARA  SUNNY     67  41  38 SW7       30.00R
SANDBERG       SUNNY     60  30  32 N8G17     30.10R
MT. WILSON       N/A     61  36  39 MISG        N/A
LAS VEGAS NV   SUNNY     73  12   9 CALM      29.96F
PHOENIX AZ     PTSUNNY   80  17   9 E3        29.95S
TIJUANA        MOSUNNY   70  45  40 SW3       30.00F
ENSENADA NW      N/A     64  32  30 W3        29.98R

$$

OFFSHORE ISLANDS

CITY           SKY/WX    TMP DP  RH WIND       PRES   REMARKS
CATALINA ARPT  SUNNY     67  50  54 NE6       30.03R
SAN CLEMENTE I MOSUNNY   67  53  61 VRB7      30.01R
SAN NICOLAS IS MOSUNNY   64  52  64 N3        30.01R

$$

MARINE AND OFFSHORE BUOY REPORTS

STATION/POSITION SKY/WX   TEMP    WIND        PRES    SWELL
                          AIR SEA DIR/SP/G            HT/PER/DIR
                          (F)     (DEG/KT/KT) (MB)    (FT/S/D)
S CLEMENTE BASIN           61 63  250/  4/  4 1015.8R   7/280/12
SAN NICOLAS IS.               57                N/A     5/300/13
SO. S. ROSA ISLA           56 56  330/ 17/ 19 1016.3R   5/12
W. S. BARBARA CH           54 54  320/ 21/ 25 1016.2R   7/310/11
S. MONICA BASIN            61 61  100/  2/  4 1015.7R   3/270/11
S PEDRO CHANNEL               62                N/A     2/260/11
DANA POINT                    63                N/A     2/280/11
CMP PENDLETON NS              63                N/A     2/240/13
OCEANSIDE OFFSHR              63                N/A     2/190/15
TORREY PINES OTR              63                N/A     3/290/11
LA JOLLA 1                 62 62  260/  9/ 10 1015.8S
MISSION BAY BUOY              63                N/A     3/320/11
SAN DIEGO BAY                 66              1015.9F
POINT LOMA SOUTH              65                N/A     3/280/11

$$




USA.gov is the U.S. government's official web portal to all federal, state and local government web resources and services.